Content
SEND FEEDBACK

Daily
Averages
Monthly
Summary
Canada

QUEBEC CITY, QUEBEC


Home > North America > Canada > Quebec
Elevation: 239 feet     Latitude: 46 48N     Longitude: 071 23W

WEATHER
 
SELECT A DAY
Number of Records: 192,552;   Date Range: 6/30/96 - 8/27/14
 
SHARE

PRINT THIS DATA

[ ← Previous Day ]
WEATHER ALMANAC - DECEMBER 16, 2013
[ Next Day → ]
[ °C ]   °F
Weather ElementAverageHighLow
Temperature2.4 °F8 °F (1:00 am)-5.8 °F (9:00 pm)
Dewpoint-2.8 °F5 °F (1:00 am)-11.2 °F (9:00 pm)
Humidity76.9 %85 % (1:00 am)64 % (1:00 pm)
Barometer29.89 in30.20 in (11:00 pm)29.65 in (1:00 am)
Wind Speed13.4 mph24.2 mph (2:00 pm)
Wind Gust31.1 mph (2:00 pm)
Weather ElementAverage
Visibility7.8 mi
Wind DirectionWSW (234.9 °)

Weather ElementTotal
Precipitation---
Heating Degree Days63.9 (Base 65)
Averaged from 35 records on December 16, 2013
WEATHER CONDITIONS BREAKOUT
WIND DIRECTION BREAKOUT
WEATHER BY HOUR - DECEMBER 16, 2013
[ °C ]   °F
Local TimeTemperatureDewpointHumidityBarometerVisibilityWind DirectionWind SpeedGust SpeedPrecipitationEventsConditions
1:00 AM8.0 °F5.0 °F82 %29.65 inSW (230°)6.9 mph
1:00 AM5.0 °F1.4 °F85 %29.65 in5.0 miSW (230°)11.5 mphSnowLight Snow
2:00 AM6.8 °F1.4 °F79 %29.68 in6.0 miSW (230°)13.8 mphSnowLight Snow
3:00 AM5.0 °F1.4 °F85 %29.69 in3.0 miWSW (240°)15.0 mphSnowLight Snow
4:00 AM5.0 °F2.0 °F79 %29.70 inWSW (240°)6.9 mph
4:00 AM5.0 °F1.4 °F85 %29.70 in10.0 miWSW (240°)11.5 mphMostly Cloudy
5:00 AM5.0 °F1.4 °F85 %29.71 in10.0 miWSW (250°)10.4 mphMostly Cloudy
6:00 AM5.0 °F-0.4 °F78 %29.73 in10.0 miSW (230°)13.8 mphIce Crystals
7:00 AM5.0 °F-0.4 °F78 %29.75 in8.0 miWSW (240°)10.4 mphSnowLight Snow Showers
7:00 AM5.0 °F2.0 °F81 %29.75 inWSW (240°)6.9 mph
7:41 AM5.0 °F-0.4 °F78 %29.78 in1.2 miWSW (250°)11.5 mphSnowLight Snow Showers
8:00 AM5.0 °F1.4 °F85 %29.79 in1.0 miWSW (240°)12.7 mphSnowLight Snow Showers
8:27 AM5.0 °F1.4 °F85 %29.80 in1.2 miWSW (240°)12.7 mph19.6 mphSnowLight Snow Showers
9:00 AM5.0 °F-0.4 °F78 %29.82 in2.5 miSW (230°)15.0 mphSnowLight Snow Showers
9:21 AM5.0 °F-0.4 °F78 %29.83 in2.0 miSW (230°)16.1 mphSnowLight Snow Showers
10:00 AM5.0 °F0.0 °F72 %29.84 inSW (230°)10.4 mph
10:00 AM3.2 °F-2.2 °F78 %29.84 in2.0 miSW (230°)20.7 mphSnowLight Snow Showers
10:41 AM5.0 °F-2.2 °F72 %29.85 in3.0 miSW (230°)21.9 mphSnowLight Snow Showers
11:00 AM5.0 °F-2.2 °F72 %29.85 in3.0 miSW (230°)21.9 mphSnowLight Snow Showers
12:00 PM3.2 °F-4.0 °F72 %29.87 in3.0 miWSW (240°)16.1 mph23.0 mphSnowLight Snow Showers
1:00 PM4.0 °F-2.0 °F64 %29.89 inWSW (240°)12.7 mph
1:00 PM3.2 °F-2.2 °F78 %29.89 in4.0 miSW (230°)17.3 mph24.2 mphSnowLight Snow Showers
2:00 PM3.2 °F-4.0 °F72 %29.92 in5.0 miSW (230°)24.2 mph31.1 mphSnowLight Snow Showers
3:00 PM1.4 °F-5.8 °F72 %29.96 in10.0 miWSW (240°)19.6 mph25.3 mphPartly Cloudy
4:00 PM1.0 °F-5.0 °F65 %30.00 inWSW (240°)11.5 mph
4:00 PM1.4 °F-5.8 °F72 %30.00 in15.0 miWSW (240°)18.4 mphSnowLow Drifting Snow
5:00 PM-0.4 °F-7.6 °F72 %30.05 in15.0 miWSW (240°)13.8 mphSnowLow Drifting Snow
6:00 PM-2.2 °F-7.6 °F78 %30.09 in15.0 miWSW (240°)12.7 mphSnowLow Drifting Snow
7:00 PM-2.0 °F-7.0 °F70 %30.10 inSW (230°)8.1 mph
7:00 PM-4.0 °F-9.4 °F78 %30.11 in15.0 miWSW (240°)11.5 mphSnowLow Drifting Snow
8:00 PM-4.0 °F-9.4 °F78 %30.14 in15.0 miWSW (240°)12.7 mphSnowLow Drifting Snow
9:00 PM-5.8 °F-11.2 °F77 %30.15 in15.0 miSW (230°)12.7 mphSnowLow Drifting Snow
10:00 PM-4.0 °F-8.0 °F72 %30.16 inSW (220°)6.9 mph
10:00 PM-5.8 °F-11.2 °F77 %30.17 in15.0 miSSW (200°)4.6 mphSnowLow Drifting Snow
11:00 PM-4.0 °F-9.4 °F78 %30.20 in15.0 miWSW (240°)16.1 mphSnowLow Drifting Snow
Hourly data recorded from CYQB, located miles away from Quebec City, Quebec







STORIES FROM OUR PARTNERS